Location: Fort Wayne
(41.1310°N, 85.1290°W)
Time: 17:12:18
(UTC-04:00)

Meteor 2-9 Rocket - Visible Passes

Search period start: 19 April 2018 00:00
Search period end: 29 April 2018 00:00
Orbit: 792 x 895 km, 81.3° (Epoch: 19 April)

Date Brightness Start Highest point End Pass type
(mag) Time Alt. Az. Time Alt. Az. Time Alt. Az.
19 Apr 5.3 02:53:57 10° N 02:57:45 41° NNE 02:57:45 41° NNE visible
19 Apr 6.1 04:38:07 10° NW 04:39:35 14° WNW 04:39:35 14° WNW visible
20 Apr 5.4 02:39:52 10° N 02:43:34 37° NNE 02:43:34 37° NNE visible
20 Apr 6.0 04:23:41 10° NW 04:25:25 16° WNW 04:25:25 16° WNW visible
21 Apr 5.6 02:25:48 10° N 02:29:24 34° NNE 02:29:24 34° NNE visible
21 Apr 6.0 04:09:19 10° NW 04:11:15 18° NW 04:11:15 18° NW visible
22 Apr 5.7 02:11:45 10° N 02:15:16 31° NE 02:15:16 31° NE visible
22 Apr 5.9 03:54:58 10° NW 03:57:06 19° NW 03:57:06 19° NW visible
23 Apr 5.8 01:57:43 10° N 02:01:08 29° NE 02:01:08 29° NE visible
23 Apr 5.8 03:40:41 10° NNW 03:42:59 21° NW 03:42:59 21° NW visible
24 Apr 5.9 01:43:43 10° N 01:47:01 26° NE 01:47:01 26° NE visible
24 Apr 5.8 03:26:25 10° NNW 03:28:52 23° NW 03:28:52 23° NW visible
25 Apr 6.0 01:29:43 10° NNE 01:32:56 24° NE 01:32:56 24° NE visible
25 Apr 5.7 03:12:09 10° NNW 03:14:47 25° NW 03:14:47 25° NW visible
26 Apr 6.1 01:15:46 10° NNE 01:18:51 21° NE 01:18:51 21° NE visible
26 Apr 5.6 02:57:54 10° NNW 03:00:42 28° NW 03:00:42 28° NW visible
27 Apr 6.1 01:01:50 10° NNE 01:04:46 19° NE 01:04:46 19° NE visible
27 Apr 5.5 02:43:42 10° NNW 02:46:37 30° NW 02:46:37 30° NW visible
28 Apr 6.2 00:47:57 10° NNE 00:50:42 17° NE 00:50:42 17° NE visible
28 Apr 5.5 02:29:30 10° NNW 02:32:34 33° NNW 02:32:34 33° NNW visible
